Satellite-Ground Cal/Val Region Overpasses Predictions

Prediction of Satellite NPP Overpassing Cal/Val Region: PacNW

Region Location: (Latitude: 10.00, Longitude: 139.50) to (Latitude: 22.70, Longitude: 165.60).

Table of predicted overpasses for the next 14.0 days since TLE Epoch: 9/6/2019
Interval Starting Time Starting Location Ending Time Ending Location
1 09/07/2019 03:05:04 ( 10.01, 153.52) 09/07/2019 03:08:40 ( 22.69, 150.50)
2 09/07/2019 15:36:58 ( 22.65, 150.75) 09/07/2019 15:40:33 ( 10.03, 147.74)
3 09/08/2019 02:46:03 ( 10.03, 158.27) 09/08/2019 02:49:38 ( 22.65, 155.27)
4 09/08/2019 15:17:56 ( 22.68, 155.52) 09/08/2019 15:21:32 ( 10.01, 152.50)
5 09/09/2019 02:27:02 ( 10.06, 163.02) 09/09/2019 02:30:37 ( 22.68, 160.02)
6 09/09/2019 14:58:54 ( 22.66, 160.27) 09/09/2019 15:02:29 ( 10.04, 157.26)
7 09/10/2019 02:10:38 ( 19.36, 165.60) 09/10/2019 02:11:34 ( 22.64, 164.79)
8 09/10/2019 03:49:29 ( 10.03, 142.42) 09/10/2019 03:52:57 ( 22.24, 139.51)
9 09/10/2019 14:39:52 ( 22.70, 165.04) 09/10/2019 14:43:28 ( 10.02, 162.02)
10 09/10/2019 16:21:22 ( 22.69, 139.66) 09/10/2019 16:21:32 ( 22.10, 139.51)
11 09/11/2019 03:30:28 ( 10.05, 147.17) 09/11/2019 03:34:03 ( 22.67, 144.16)
12 09/11/2019 16:02:20 ( 22.67, 144.41) 09/11/2019 16:05:55 ( 10.05, 141.41)
13 09/12/2019 03:11:25 ( 10.02, 151.94) 09/12/2019 03:15:01 ( 22.70, 148.92)
14 09/12/2019 15:43:19 ( 22.64, 149.17) 09/12/2019 15:46:54 ( 10.02, 146.16)
15 09/13/2019 02:52:24 ( 10.04, 156.69) 09/13/2019 02:55:59 ( 22.67, 153.68)
16 09/13/2019 15:24:16 ( 22.68, 153.93) 09/13/2019 15:27:51 ( 10.06, 150.93)
17 09/14/2019 02:33:21 ( 10.01, 161.45) 09/14/2019 02:36:57 ( 22.69, 158.44)
18 09/14/2019 15:05:15 ( 22.65, 158.69) 09/14/2019 15:08:50 ( 10.03, 155.68)
19 09/15/2019 02:15:05 ( 12.68, 165.60) 09/15/2019 02:17:55 ( 22.66, 163.20)
20 09/15/2019 03:55:50 ( 10.04, 140.83) 09/15/2019 03:57:27 ( 15.74, 139.51)
21 09/15/2019 14:46:13 ( 22.69, 163.45) 09/15/2019 14:49:49 ( 10.01, 160.44)
22 09/16/2019 03:36:47 ( 10.01, 145.60) 09/16/2019 03:40:23 ( 22.69, 142.58)
23 09/16/2019 14:30:17 ( 11.75, 165.59) 09/16/2019 14:30:46 ( 10.04, 165.20)
24 09/16/2019 16:08:41 ( 22.65, 142.83) 09/16/2019 16:12:16 ( 10.04, 139.83)
25 09/17/2019 03:17:46 ( 10.03, 150.35) 09/17/2019 03:21:21 ( 22.66, 147.35)
26 09/17/2019 15:49:39 ( 22.69, 147.60) 09/17/2019 15:53:15 ( 10.01, 144.58)
27 09/18/2019 02:58:43 ( 10.00, 155.12) 09/18/2019 03:02:19 ( 22.68, 152.10)
28 09/18/2019 15:30:37 ( 22.66, 152.35) 09/18/2019 15:34:12 ( 10.04, 149.35)
29 09/19/2019 02:39:42 ( 10.03, 159.87) 09/19/2019 02:43:17 ( 22.65, 156.87)
30 09/19/2019 15:11:35 ( 22.69, 157.12) 09/19/2019 15:15:11 ( 10.02, 154.10)
31 09/20/2019 02:20:40 ( 10.06, 164.62) 09/20/2019 02:24:15 ( 22.68, 161.62)


NCC Satellite Cal/Val Overpasses Prediction Service
